{"data":{"norad_id":58976,"epoch":"2026-05-24T15:50:13.795296Z","epoch_age_seconds":104361,"freshness":"FRESH","line1":"1 58976U 24031M   26144.65988189 -.00000320  00000+0  13213-5 0  9996","line2":"2 58976  53.1620 303.8810 0001050  71.6678 288.4437 15.30197523128146","mean_motion":15.30197523,"eccentricity":0.000105,"inclination_deg":53.162,"raan_deg":303.881,"arg_perigee_deg":71.6678,"mean_anomaly_deg":288.4437,"bstar":1.3213e-6,"rev_number":12814,"period_min":94.105498039027,"perigee_km":474.50286256096,"apogee_km":475.94206804868,"semimajor_km":6853.3594653048,"source":"CELESTRAK","updated_at":"2026-05-25T13:38:18.795457Z"}}